Time,TemperatureF,DewpointF,PressureIn,WindDirection,WindDirectionDegrees,WindSpeedMPH,WindSpeedGustMPH,Humidity,HourlyPrecipIn,Conditions,Clouds,dailyrainin,SoftwareType,DateUTC
2013-09-22 00:04:00,54.9,45.3,29.92,North,0,0.0,0.0,70,0.00,,CLR,0.00,VWS V14.01,2013-09-22 05:04:00,
2013-09-22 00:09:00,54.7,45.1,29.92,North,0,0.0,0.0,70,0.00,,CLR,0.00,VWS V14.01,2013-09-22 05:09:00,
2013-09-22 00:14:00,54.7,45.1,29.92,North,10,0.0,0.0,70,0.00,,CLR,0.00,VWS V14.01,2013-09-22 05:14:00,
2013-09-22 00:19:00,54.9,45.3,29.92,NW,325,0.0,0.0,70,0.00,,CLR,0.00,VWS V14.01,2013-09-22 05:19:00,
2013-09-22 00:24:00,55.0,45.5,29.92,NNW,336,0.0,0.0,70,0.00,,CLR,0.00,VWS V14.01,2013-09-22 05:24:00,
2013-09-22 00:29:00,55.0,45.5,29.92,North,357,0.0,0.0,70,0.00,,CLR,0.00,VWS V14.01,2013-09-22 05:29:00,
2013-09-22 00:34:00,55.0,45.5,29.95,NNW,343,0.0,0.0,70,0.00,,CLR,0.00,VWS V14.01,2013-09-22 05:34:00,
2013-09-22 00:39:00,55.0,45.5,29.95,NNW,338,0.0,0.0,70,0.00,,CLR,0.00,VWS V14.01,2013-09-22 05:39:00,
2013-09-22 00:44:00,55.0,45.5,29.95,North,7,0.0,0.0,70,0.00,,CLR,0.00,VWS V14.01,2013-09-22 05:44:00,
2013-09-22 00:49:00,55.0,45.5,29.95,NE,54,0.0,0.0,70,0.00,,CLR,0.00,VWS V14.01,2013-09-22 05:49:00,
2013-09-22 00:54:00,54.9,45.3,29.95,NE,44,0.0,0.0,70,0.00,,CLR,0.00,VWS V14.01,2013-09-22 05:54:00,
2013-09-22 00:59:00,54.9,45.3,29.95,North,353,0.0,0.0,70,0.00,,CLR,0.00,VWS V14.01,2013-09-22 05:59:00,
2013-09-22 01:04:00,54.7,45.1,29.95,North,4,0.0,0.0,70,0.00,,CLR,0.00,VWS V14.01,2013-09-22 06:04:00,
2013-09-22 01:09:00,54.5,44.9,29.95,NNW,338,0.0,0.0,70,0.00,,CLR,0.00,VWS V14.01,2013-09-22 06:09:00,
2013-09-22 01:15:00,54.5,44.9,29.95,North,357,0.0,0.0,70,0.00,,CLR,0.00,VWS V14.01,2013-09-22 06:15:00,
2013-09-22 01:20:00,54.5,44.9,29.95,NE,56,0.0,2.7,70,0.00,,CLR,0.00,VWS V14.01,2013-09-22 06:20:00,
2013-09-22 01:25:00,54.3,44.8,29.95,North,357,0.0,4.0,70,0.00,,CLR,0.00,VWS V14.01,2013-09-22 06:25:00,
2013-09-22 01:30:00,54.3,44.8,29.95,ENE,71,0.0,2.7,70,0.00,,CLR,0.00,VWS V14.01,2013-09-22 06:30:00,
2013-09-22 01:35:00,54.1,44.6,29.95,NNE,16,0.0,0.0,70,0.00,,CLR,0.00,VWS V14.01,2013-09-22 06:35:00,
2013-09-22 01:40:00,54.1,44.6,29.95,ESE,110,0.0,0.0,70,0.00,,CLR,0.00,VWS V14.01,2013-09-22 06:40:00,
2013-09-22 01:45:00,54.0,44.4,29.95,NNE,28,0.0,5.8,70,0.00,,CLR,0.00,VWS V14.01,2013-09-22 06:45:00,
2013-09-22 01:50:00,54.0,44.4,29.95,NE,41,0.0,4.0,70,0.00,,CLR,0.00,VWS V14.01,2013-09-22 06:50:00,
2013-09-22 01:55:00,53.8,44.2,29.95,East,79,0.0,0.0,70,0.00,,CLR,0.00,VWS V14.01,2013-09-22 06:55:00,
2013-09-22 02:00:00,53.6,44.1,29.95,NW,310,0.0,0.0,70,0.00,,CLR,0.00,VWS V14.01,2013-09-22 07:00:00,
2013-09-22 02:05:00,53.4,45.2,29.95,East,97,0.0,0.0,74,0.00,,CLR,0.00,VWS V14.01,2013-09-22 07:05:00,
2013-09-22 02:10:00,53.2,45.0,29.95,NNE,33,0.0,0.0,74,0.00,,CLR,0.00,VWS V14.01,2013-09-22 07:10:00,
2013-09-22 02:15:00,53.1,44.8,29.95,NNE,25,0.0,0.0,74,0.00,,CLR,0.00,VWS V14.01,2013-09-22 07:15:00,
2013-09-22 02:20:00,53.1,44.8,29.95,North,7,0.0,0.0,74,0.00,,CLR,0.00,VWS V14.01,2013-09-22 07:20:00,
2013-09-22 02:25:00,52.9,44.7,29.95,NE,45,0.0,0.0,74,0.00,,CLR,0.00,VWS V14.01,2013-09-22 07:25:00,
2013-09-22 02:30:00,52.7,44.5,29.95,NE,55,0.0,0.0,74,0.00,,CLR,0.00,VWS V14.01,2013-09-22 07:30:00,
2013-09-22 02:35:00,52.7,44.5,29.95,ENE,75,0.0,0.0,74,0.00,,CLR,0.00,VWS V14.01,2013-09-22 07:35:00,
2013-09-22 02:41:00,52.5,44.3,29.95,North,3,0.0,0.0,74,0.00,,CLR,0.00,VWS V14.01,2013-09-22 07:41:00,
2013-09-22 02:46:00,52.3,44.1,29.95,North,357,0.0,0.0,74,0.00,,CLR,0.00,VWS V14.01,2013-09-22 07:46:00,
2013-09-22 02:51:00,52.2,44.0,29.95,NE,50,0.0,0.0,74,0.00,,CLR,0.00,VWS V14.01,2013-09-22 07:51:00,
2013-09-22 02:56:00,52.2,44.0,29.95,SE,127,0.0,0.0,74,0.00,,CLR,0.00,VWS V14.01,2013-09-22 07:56:00,
2013-09-22 03:01:00,52.2,46.3,29.95,NNE,32,0.0,0.0,80,0.00,,CLR,0.00,VWS V14.01,2013-09-22 08:01:00,
2013-09-22 03:06:00,52.2,46.3,29.95,ENE,77,0.0,0.0,80,0.00,,CLR,0.00,VWS V14.01,2013-09-22 08:06:00,
2013-09-22 03:11:00,52.2,46.3,29.95,NE,52,2.7,2.7,80,0.00,,CLR,0.00,VWS V14.01,2013-09-22 08:11:00,
2013-09-22 03:16:00,52.2,46.3,29.95,ESE,114,0.0,0.0,80,0.00,,CLR,0.00,VWS V14.01,2013-09-22 08:16:00,
2013-09-22 03:21:00,52.0,46.2,29.95,ENE,74,0.0,0.0,80,0.00,,CLR,0.00,VWS V14.01,2013-09-22 08:21:00,
2013-09-22 03:26:00,52.0,46.2,29.95,East,83,0.0,0.0,80,0.00,,CLR,0.00,VWS V14.01,2013-09-22 08:26:00,
2013-09-22 03:31:00,51.8,46.0,29.95,East,87,0.0,0.0,80,0.00,,CLR,0.00,VWS V14.01,2013-09-22 08:31:00,
2013-09-22 03:36:00,51.6,47.0,29.95,ENE,60,0.0,2.7,84,0.00,,CLR,0.00,VWS V14.01,2013-09-22 08:36:00,
2013-09-22 03:41:00,51.6,47.0,29.95,ENE,64,0.0,0.0,84,0.00,,CLR,0.00,VWS V14.01,2013-09-22 08:41:00,
2013-09-22 03:46:00,51.6,47.0,29.95,NNE,26,0.0,0.0,84,0.00,,CLR,0.00,VWS V14.01,2013-09-22 08:46:00,
2013-09-22 03:51:00,51.6,47.0,29.95,NNE,20,0.0,4.9,84,0.00,,CLR,0.00,VWS V14.01,2013-09-22 08:51:00,
2013-09-22 03:56:00,51.6,47.0,29.95,SE,140,0.0,2.7,84,0.00,,CLR,0.00,VWS V14.01,2013-09-22 08:56:00,
2013-09-22 04:01:00,51.6,47.0,29.95,SE,132,0.0,0.0,84,0.00,,CLR,0.00,VWS V14.01,2013-09-22 09:01:00,
2013-09-22 04:06:00,51.4,46.8,29.95,SE,138,0.0,0.0,84,0.00,,CLR,0.00,VWS V14.01,2013-09-22 09:06:00,
2013-09-22 04:11:00,51.4,46.8,29.95,SE,126,0.0,0.0,84,0.00,,CLR,0.00,VWS V14.01,2013-09-22 09:11:00,
2013-09-22 04:16:00,51.4,46.8,29.95,ENE,58,3.6,3.6,84,0.00,,CLR,0.00,VWS V14.01,2013-09-22 09:16:00,
2013-09-22 04:22:00,51.4,46.8,29.95,ESE,113,0.0,0.0,84,0.00,,CLR,0.00,VWS V14.01,2013-09-22 09:22:00,
2013-09-22 04:27:00,51.4,46.8,29.95,ENE,64,0.0,0.0,84,0.00,,CLR,0.00,VWS V14.01,2013-09-22 09:27:00,
2013-09-22 04:32:00,51.3,46.6,29.95,ESE,123,0.0,0.0,84,0.00,,CLR,0.00,VWS V14.01,2013-09-22 09:32:00,
2013-09-22 04:37:00,51.1,46.4,29.95,NE,35,0.0,0.0,84,0.00,,CLR,0.00,VWS V14.01,2013-09-22 09:37:00,
2013-09-22 04:42:00,51.1,46.4,29.95,ENE,62,0.0,0.0,84,0.00,,CLR,0.00,VWS V14.01,2013-09-22 09:42:00,
2013-09-22 04:47:00,50.9,46.2,29.95,ENE,75,0.0,0.0,84,0.00,,CLR,0.00,VWS V14.01,2013-09-22 09:47:00,
2013-09-22 04:52:00,50.9,46.2,29.95,NE,47,0.0,0.0,84,0.00,,CLR,0.00,VWS V14.01,2013-09-22 09:52:00,
2013-09-22 04:57:00,50.7,46.1,29.95,SE,126,0.0,3.6,84,0.00,,CLR,0.00,VWS V14.01,2013-09-22 09:57:00,
2013-09-22 05:02:00,50.7,46.1,29.95,SE,128,0.0,0.0,84,0.00,,CLR,0.00,VWS V14.01,2013-09-22 10:02:00,
2013-09-22 05:07:00,50.7,46.1,29.95,East,95,0.0,0.0,84,0.00,,CLR,0.00,VWS V14.01,2013-09-22 10:07:00,
2013-09-22 05:12:00,50.7,46.1,29.95,ENE,70,0.0,0.0,84,0.00,,CLR,0.00,VWS V14.01,2013-09-22 10:12:00,
2013-09-22 05:17:00,50.7,46.1,29.98,NE,51,0.0,0.0,84,0.00,,CLR,0.00,VWS V14.01,2013-09-22 10:17:00,
2013-09-22 05:22:00,50.5,45.9,29.98,NE,56,0.0,0.0,84,0.00,,CLR,0.00,VWS V14.01,2013-09-22 10:22:00,
2013-09-22 05:27:00,50.5,45.9,29.98,ESE,103,0.0,0.0,84,0.00,,CLR,0.00,VWS V14.01,2013-09-22 10:27:00,
2013-09-22 05:32:00,50.4,45.7,29.98,ENE,68,0.0,0.0,84,0.00,,CLR,0.00,VWS V14.01,2013-09-22 10:32:00,
2013-09-22 05:37:00,50.4,45.7,29.98,East,79,0.0,0.0,84,0.00,,CLR,0.00,VWS V14.01,2013-09-22 10:37:00,
2013-09-22 05:42:00,50.2,45.5,29.98,East,79,0.0,0.0,84,0.00,,CLR,0.00,VWS V14.01,2013-09-22 10:42:00,
2013-09-22 05:47:00,50.2,45.5,29.98,East,79,0.0,0.0,84,0.00,,CLR,0.00,VWS V14.01,2013-09-22 10:47:00,
2013-09-22 05:53:00,50.0,45.4,29.98,East,79,0.0,0.0,84,0.00,,CLR,0.00,VWS V14.01,2013-09-22 10:53:00,
2013-09-22 05:58:00,49.8,45.2,29.98,East,79,0.0,0.0,84,0.00,,CLR,0.00,VWS V14.01,2013-09-22 10:58:00,
2013-09-22 06:03:00,49.8,45.2,29.98,East,79,0.0,0.0,84,0.00,,CLR,0.00,VWS V14.01,2013-09-22 11:03:00,
2013-09-22 06:08:00,49.5,44.8,29.98,East,79,0.0,0.0,84,0.00,,CLR,0.00,VWS V14.01,2013-09-22 11:08:00,
2013-09-22 06:13:00,49.3,44.7,29.98,East,79,0.0,0.0,84,0.00,,CLR,0.00,VWS V14.01,2013-09-22 11:13:00,
2013-09-22 06:18:00,49.1,44.5,29.98,East,79,0.0,0.0,84,0.00,,CLR,0.00,VWS V14.01,2013-09-22 11:18:00,
2013-09-22 06:23:00,48.9,44.3,29.98,East,79,0.0,0.0,84,0.00,,CLR,0.00,VWS V14.01,2013-09-22 11:23:00,
2013-09-22 06:28:00,48.7,44.1,29.98,East,79,0.0,0.0,84,0.00,,CLR,0.00,VWS V14.01,2013-09-22 11:28:00,
2013-09-22 06:34:00,48.7,44.1,29.98,East,79,0.0,0.0,84,0.00,,CLR,0.00,VWS V14.01,2013-09-22 11:34:00,
2013-09-22 06:39:00,48.7,44.1,29.98,East,79,0.0,0.0,84,0.00,,CLR,0.00,VWS V14.01,2013-09-22 11:39:00,
2013-09-22 06:44:00,48.7,44.1,29.98,East,79,0.0,0.0,84,0.00,,CLR,0.00,VWS V14.01,2013-09-22 11:44:00,
2013-09-22 06:49:00,48.9,44.3,29.98,ENE,76,0.0,0.0,84,0.00,,CLR,0.00,VWS V14.01,2013-09-22 11:49:00,
2013-09-22 06:54:00,49.1,44.5,29.98,ENE,76,0.0,0.0,84,0.00,,CLR,0.00,VWS V14.01,2013-09-22 11:54:00,
2013-09-22 06:59:00,49.3,44.7,29.98,NE,54,0.0,0.0,84,0.00,,CLR,0.00,VWS V14.01,2013-09-22 11:59:00,
2013-09-22 07:04:00,49.5,44.8,29.98,NE,54,0.0,0.0,84,0.00,,CLR,0.00,VWS V14.01,2013-09-22 12:04:00,
2013-09-22 07:09:00,49.6,45.0,29.98,NE,43,0.0,0.0,84,0.00,,CLR,0.00,VWS V14.01,2013-09-22 12:09:00,
2013-09-22 07:14:00,49.8,45.2,29.98,NE,43,0.0,0.0,84,0.00,,CLR,0.00,VWS V14.01,2013-09-22 12:14:00,
2013-09-22 07:19:00,50.0,45.4,29.98,NE,43,0.0,0.0,84,0.00,,CLR,0.00,VWS V14.01,2013-09-22 12:19:00,
2013-09-22 07:24:00,50.0,45.4,29.98,NE,43,0.0,0.0,84,0.00,,CLR,0.00,VWS V14.01,2013-09-22 12:24:00,
2013-09-22 07:29:00,50.0,45.4,29.98,NE,38,0.0,0.0,84,0.00,,CLR,0.00,VWS V14.01,2013-09-22 12:29:00,
2013-09-22 07:34:00,50.2,45.5,29.98,NNE,12,0.0,0.0,84,0.00,,CLR,0.00,VWS V14.01,2013-09-22 12:34:00,
2013-09-22 07:39:00,50.5,48.0,29.98,NE,47,0.0,0.0,91,0.00,,CLR,0.00,VWS V14.01,2013-09-22 12:39:00,
2013-09-22 07:44:00,50.5,48.0,29.98,North,8,0.0,0.0,91,0.00,,CLR,0.00,VWS V14.01,2013-09-22 12:44:00,
2013-09-22 07:49:00,50.9,48.4,29.98,North,0,0.0,0.0,91,0.00,,CLR,0.00,VWS V14.01,2013-09-22 12:49:00,
2013-09-22 07:54:00,51.1,48.5,29.98,NNE,26,0.0,0.0,91,0.00,,CLR,0.00,VWS V14.01,2013-09-22 12:54:00,
2013-09-22 07:59:00,51.4,48.9,29.98,NNW,327,0.0,3.1,91,0.00,,CLR,0.00,VWS V14.01,2013-09-22 12:59:00,
2013-09-22 08:04:00,51.6,49.1,30.01,ENE,62,0.0,0.0,91,0.00,,CLR,0.00,VWS V14.01,2013-09-22 13:04:00,
2013-09-22 08:10:00,51.8,49.3,30.01,NW,322,0.0,3.1,91,0.00,,CLR,0.00,VWS V14.01,2013-09-22 13:10:00,
2013-09-22 08:15:00,52.0,49.4,30.01,NW,311,0.0,0.0,91,0.00,,CLR,0.00,VWS V14.01,2013-09-22 13:15:00,
2013-09-22 08:20:00,52.2,49.6,30.01,NE,36,3.6,3.6,91,0.00,,CLR,0.00,VWS V14.01,2013-09-22 13:20:00,
2013-09-22 08:25:00,52.3,49.8,30.01,ENE,71,0.0,2.7,91,0.00,,CLR,0.00,VWS V14.01,2013-09-22 13:25:00,
2013-09-22 08:30:00,52.5,50.0,30.01,ENE,75,0.0,2.7,91,0.00,,CLR,0.00,VWS V14.01,2013-09-22 13:30:00,
2013-09-22 08:35:00,52.9,50.3,30.01,NE,40,0.0,4.0,91,0.00,,CLR,0.00,VWS V14.01,2013-09-22 13:35:00,
2013-09-22 08:40:00,53.4,50.9,30.01,SE,124,0.0,2.7,91,0.00,,CLR,0.00,VWS V14.01,2013-09-22 13:40:00,
2013-09-22 08:45:00,54.1,51.6,30.01,ENE,71,0.0,3.6,91,0.00,,CLR,0.00,VWS V14.01,2013-09-22 13:45:00,
2013-09-22 08:50:00,55.4,52.8,29.98,NNW,337,0.0,3.6,91,0.00,,CLR,0.00,VWS V14.01,2013-09-22 13:50:00,
2013-09-22 08:55:00,56.5,53.9,29.98,NNW,346,0.0,3.1,91,0.00,,CLR,0.00,VWS V14.01,2013-09-22 13:55:00,
2013-09-22 09:00:00,57.4,53.7,29.98,NE,48,0.0,0.0,88,0.00,,CLR,0.00,VWS V14.01,2013-09-22 14:00:00,
2013-09-22 09:05:00,58.6,55.0,30.01,ENE,77,0.0,0.0,88,0.00,,CLR,0.00,VWS V14.01,2013-09-22 14:05:00,
2013-09-22 09:10:00,59.7,56.0,30.01,NE,44,0.0,0.0,88,0.00,,CLR,0.00,VWS V14.01,2013-09-22 14:10:00,
2013-09-22 09:15:00,60.6,55.8,30.01,NE,56,0.0,0.0,84,0.00,,CLR,0.00,VWS V14.01,2013-09-22 14:15:00,
2013-09-22 09:21:00,60.8,52.3,30.01,NNW,341,0.0,0.0,74,0.00,,CLR,0.00,VWS V14.01,2013-09-22 14:21:00,
2013-09-22 09:26:00,60.8,52.3,30.01,North,0,0.0,0.0,74,0.00,,CLR,0.00,VWS V14.01,2013-09-22 14:26:00,
2013-09-22 09:31:00,61.0,52.5,30.01,ENE,74,0.0,0.0,74,0.00,,CLR,0.00,VWS V14.01,2013-09-22 14:31:00,
2013-09-22 09:36:00,61.7,50.4,30.01,East,95,0.0,3.1,66,0.00,,CLR,0.00,VWS V14.01,2013-09-22 14:36:00,
2013-09-22 09:41:00,61.9,50.6,30.01,ENE,72,2.7,2.7,66,0.00,,CLR,0.00,VWS V14.01,2013-09-22 14:41:00,
2013-09-22 09:46:00,62.6,49.8,30.01,ESE,111,0.0,0.0,63,0.00,,CLR,0.00,VWS V14.01,2013-09-22 14:46:00,
2013-09-22 09:51:00,63.0,50.2,30.04,East,99,3.6,5.8,63,0.00,,CLR,0.00,VWS V14.01,2013-09-22 14:51:00,
2013-09-22 09:56:00,63.1,50.3,30.04,ENE,57,0.0,0.0,63,0.00,,CLR,0.00,VWS V14.01,2013-09-22 14:56:00,
2013-09-22 10:01:00,63.1,50.3,30.04,ENE,58,0.0,0.0,63,0.00,,CLR,0.00,VWS V14.01,2013-09-22 15:01:00,
2013-09-22 10:06:00,63.5,50.7,30.01,East,96,0.0,0.0,63,0.00,,CLR,0.00,VWS V14.01,2013-09-22 15:06:00,
2013-09-22 10:11:00,63.9,51.0,30.01,NE,46,0.0,4.0,63,0.00,,CLR,0.00,VWS V14.01,2013-09-22 15:11:00,
2013-09-22 10:16:00,64.2,51.4,30.01,ENE,64,0.0,3.1,63,0.00,,CLR,0.00,VWS V14.01,2013-09-22 15:16:00,
2013-09-22 10:21:00,64.8,51.9,30.04,NNW,340,4.0,6.3,63,0.00,,CLR,0.00,VWS V14.01,2013-09-22 15:21:00,
2013-09-22 10:26:00,64.8,51.9,30.04,NNW,344,4.5,4.5,63,0.00,,CLR,0.00,VWS V14.01,2013-09-22 15:26:00,
2013-09-22 10:31:00,64.8,51.9,30.04,NNE,19,3.1,3.6,63,0.00,,CLR,0.00,VWS V14.01,2013-09-22 15:31:00,
2013-09-22 10:36:00,65.3,52.4,30.04,NE,51,0.0,0.0,63,0.00,,CLR,0.00,VWS V14.01,2013-09-22 15:36:00,
2013-09-22 10:41:00,65.7,52.7,30.04,SE,131,3.1,4.9,63,0.00,,CLR,0.00,VWS V14.01,2013-09-22 15:41:00,
2013-09-22 10:46:00,65.5,52.6,30.04,NNE,29,0.0,2.2,63,0.00,,CLR,0.00,VWS V14.01,2013-09-22 15:46:00,
2013-09-22 10:51:00,65.7,52.7,30.04,NE,56,0.0,3.1,63,0.00,,CLR,0.00,VWS V14.01,2013-09-22 15:51:00,
2013-09-22 10:56:00,66.0,53.1,30.04,NE,42,0.0,4.9,63,0.00,,CLR,0.00,VWS V14.01,2013-09-22 15:56:00,
2013-09-22 11:02:00,66.4,51.9,30.04,NNW,345,2.7,4.5,60,0.00,,CLR,0.00,VWS V14.01,2013-09-22 16:02:00,
2013-09-22 11:07:00,66.6,52.0,30.01,NNE,13,0.0,5.4,60,0.00,,CLR,0.00,VWS V14.01,2013-09-22 16:07:00,
2013-09-22 11:12:00,66.7,52.2,30.01,ESE,105,0.0,3.1,60,0.00,,CLR,0.00,VWS V14.01,2013-09-22 16:12:00,
2013-09-22 11:17:00,67.3,52.7,30.01,ENE,61,2.7,7.6,60,0.00,,CLR,0.00,VWS V14.01,2013-09-22 16:17:00,
2013-09-22 11:22:00,67.8,53.2,30.01,NW,326,4.9,7.6,60,0.00,,CLR,0.00,VWS V14.01,2013-09-22 16:22:00,
2013-09-22 11:27:00,67.6,53.0,30.01,ESE,118,0.0,3.1,60,0.00,,CLR,0.00,VWS V14.01,2013-09-22 16:27:00,
2013-09-22 11:32:00,67.6,53.0,30.01,North,357,2.7,4.0,60,0.00,,CLR,0.00,VWS V14.01,2013-09-22 16:32:00,
2013-09-22 11:37:00,67.6,53.0,30.01,NE,53,2.7,2.7,60,0.00,,CLR,0.00,VWS V14.01,2013-09-22 16:37:00,
2013-09-22 11:42:00,67.5,52.9,30.01,NW,315,5.4,6.3,60,0.00,,CLR,0.00,VWS V14.01,2013-09-22 16:42:00,
2013-09-22 11:47:00,67.6,53.0,30.01,ESE,111,3.6,4.0,60,0.00,,CLR,0.00,VWS V14.01,2013-09-22 16:47:00,
2013-09-22 11:52:00,67.8,53.2,30.01,NNW,328,3.6,8.3,60,0.00,,CLR,0.00,VWS V14.01,2013-09-22 16:52:00,
2013-09-22 11:57:00,68.0,53.4,30.01,WNW,303,0.0,4.0,60,0.00,,CLR,0.00,VWS V14.01,2013-09-22 16:57:00,
2013-09-22 12:02:00,68.2,53.5,30.01,NNW,342,2.7,5.8,60,0.00,,CLR,0.00,VWS V14.01,2013-09-22 17:02:00,
2013-09-22 12:07:00,68.4,53.7,30.01,NW,319,0.0,5.4,60,0.00,,CLR,0.00,VWS V14.01,2013-09-22 17:07:00,
2013-09-22 12:13:00,68.5,53.9,30.01,NNW,348,0.0,5.8,60,0.00,,CLR,0.00,VWS V14.01,2013-09-22 17:13:00,
2013-09-22 12:18:00,68.2,53.5,30.01,ESE,115,4.0,4.0,60,0.00,,CLR,0.00,VWS V14.01,2013-09-22 17:18:00,
2013-09-22 12:23:00,68.2,53.5,30.01,SE,135,3.1,4.0,60,0.00,,CLR,0.00,VWS V14.01,2013-09-22 17:23:00,
2013-09-22 12:28:00,68.4,53.7,30.01,South,191,0.0,0.0,60,0.00,,CLR,0.00,VWS V14.01,2013-09-22 17:28:00,
2013-09-22 12:33:00,69.1,54.4,30.01,East,81,0.0,4.0,60,0.00,,CLR,0.00,VWS V14.01,2013-09-22 17:33:00,
2013-09-22 12:38:00,69.6,54.9,30.01,East,79,0.0,4.0,60,0.00,,CLR,0.00,VWS V14.01,2013-09-22 17:38:00,
2013-09-22 12:43:00,70.0,55.2,30.01,SSE,147,0.0,0.0,60,0.00,,CLR,0.00,VWS V14.01,2013-09-22 17:43:00,
2013-09-22 12:48:00,70.3,55.6,29.98,NE,39,2.7,4.9,60,0.00,,CLR,0.00,VWS V14.01,2013-09-22 17:48:00,
2013-09-22 12:53:00,70.3,55.6,29.98,SW,224,0.0,3.6,60,0.00,,CLR,0.00,VWS V14.01,2013-09-22 17:53:00,
2013-09-22 12:58:00,70.2,55.4,29.98,North,357,3.1,6.3,60,0.00,,CLR,0.00,VWS V14.01,2013-09-22 17:58:00,
2013-09-22 13:03:00,70.7,55.9,29.98,North,0,0.0,2.7,60,0.00,,CLR,0.00,VWS V14.01,2013-09-22 18:03:00,
2013-09-22 13:08:00,70.7,55.9,29.98,WSW,246,0.0,5.8,60,0.00,,CLR,0.00,VWS V14.01,2013-09-22 18:08:00,
2013-09-22 13:14:00,71.1,56.3,29.98,NNW,345,4.9,5.8,60,0.00,,CLR,0.00,VWS V14.01,2013-09-22 18:14:00,
2013-09-22 13:19:00,71.8,55.3,29.98,NNW,329,2.2,6.3,56,0.00,,CLR,0.00,VWS V14.01,2013-09-22 18:19:00,
2013-09-22 13:24:00,72.1,55.6,29.98,WNW,286,3.1,6.3,56,0.00,,CLR,0.00,VWS V14.01,2013-09-22 18:24:00,
2013-09-22 13:29:00,72.0,55.4,29.98,North,357,4.9,10.1,56,0.00,,CLR,0.00,VWS V14.01,2013-09-22 18:29:00,
2013-09-22 13:34:00,72.1,55.6,29.98,NNW,332,0.0,4.0,56,0.00,,CLR,0.00,VWS V14.01,2013-09-22 18:34:00,
2013-09-22 13:39:00,72.7,56.1,29.98,NNW,335,4.0,5.8,56,0.00,,CLR,0.00,VWS V14.01,2013-09-22 18:39:00,
2013-09-22 13:44:00,73.4,56.8,29.98,SE,129,0.0,4.9,56,0.00,,CLR,0.00,VWS V14.01,2013-09-22 18:44:00,
2013-09-22 13:49:00,73.6,56.9,29.98,NE,40,0.0,4.0,56,0.00,,CLR,0.00,VWS V14.01,2013-09-22 18:49:00,
2013-09-22 13:54:00,73.8,60.4,29.98,North,349,0.0,4.9,63,0.00,,CLR,0.00,VWS V14.01,2013-09-22 18:54:00,
2013-09-22 13:59:00,73.6,56.9,29.98,SE,131,5.4,6.3,56,0.00,,CLR,0.00,VWS V14.01,2013-09-22 18:59:00,
2013-09-22 14:04:00,73.0,56.4,29.98,NNW,340,0.0,4.0,56,0.00,,CLR,0.00,VWS V14.01,2013-09-22 19:04:00,
2013-09-22 14:09:00,73.4,56.8,29.98,SSE,154,3.6,5.4,56,0.00,,CLR,0.00,VWS V14.01,2013-09-22 19:09:00,
2013-09-22 14:14:00,73.2,56.6,29.98,NNE,20,0.0,3.6,56,0.00,,CLR,0.00,VWS V14.01,2013-09-22 19:14:00,
2013-09-22 14:19:00,73.8,60.4,29.95,NNW,331,0.0,3.6,63,0.00,,CLR,0.00,VWS V14.01,2013-09-22 19:19:00,
2013-09-22 14:25:00,73.6,56.9,29.95,ESE,106,0.0,3.1,56,0.00,,CLR,0.00,VWS V14.01,2013-09-22 19:25:00,
2013-09-22 14:30:00,73.6,56.9,29.95,NNW,334,0.0,0.0,56,0.00,,CLR,0.00,VWS V14.01,2013-09-22 19:30:00,
2013-09-22 14:35:00,74.3,60.9,29.98,NW,326,4.0,4.0,63,0.00,,CLR,0.00,VWS V14.01,2013-09-22 19:35:00,
2013-09-22 14:40:00,74.5,61.1,29.98,ENE,66,4.9,4.9,63,0.00,,CLR,0.00,VWS V14.01,2013-09-22 19:40:00,
2013-09-22 14:45:00,74.1,60.7,29.98,SSW,194,3.1,4.9,63,0.00,,CLR,0.00,VWS V14.01,2013-09-22 19:45:00,
2013-09-22 14:50:00,73.6,56.9,29.98,NW,308,0.0,4.0,56,0.00,,CLR,0.00,VWS V14.01,2013-09-22 19:50:00,
2013-09-22 14:55:00,73.8,60.4,29.98,SE,141,0.0,0.0,63,0.00,,CLR,0.00,VWS V14.01,2013-09-22 19:55:00,
2013-09-22 15:00:00,73.8,57.1,29.98,NNW,338,3.1,3.1,56,0.00,,CLR,0.00,VWS V14.01,2013-09-22 20:00:00,
2013-09-22 15:05:00,74.1,60.7,29.98,NW,307,5.4,5.4,63,0.00,,CLR,0.00,VWS V14.01,2013-09-22 20:05:00,
2013-09-22 15:10:00,74.5,57.8,29.98,East,81,2.2,3.1,56,0.00,,CLR,0.00,VWS V14.01,2013-09-22 20:10:00,
2013-09-22 15:15:00,74.8,61.4,29.98,NNW,335,0.0,3.6,63,0.00,,CLR,0.00,VWS V14.01,2013-09-22 20:15:00,
2013-09-22 15:20:00,75.0,61.6,29.95,NNW,332,2.7,4.9,63,0.00,,CLR,0.00,VWS V14.01,2013-09-22 20:20:00,
2013-09-22 15:25:00,75.4,61.9,29.95,ESE,116,2.2,3.1,63,0.00,,CLR,0.00,VWS V14.01,2013-09-22 20:25:00,
2013-09-22 15:30:00,75.4,61.9,29.95,SW,225,0.0,0.0,63,0.00,,CLR,0.00,VWS V14.01,2013-09-22 20:30:00,
2013-09-22 15:36:00,75.4,61.9,29.95,ENE,69,0.0,4.9,63,0.00,,CLR,0.00,VWS V14.01,2013-09-22 20:36:00,
2013-09-22 15:41:00,75.6,62.1,29.95,NNW,334,2.7,4.9,63,0.00,,CLR,0.00,VWS V14.01,2013-09-22 20:41:00,
2013-09-22 15:46:00,75.7,62.3,29.95,ENE,68,0.0,0.0,63,0.00,,CLR,0.00,VWS V14.01,2013-09-22 20:46:00,
2013-09-22 15:51:00,75.4,61.9,29.95,SE,139,2.7,2.7,63,0.00,,CLR,0.00,VWS V14.01,2013-09-22 20:51:00,
2013-09-22 15:56:00,75.0,61.6,29.95,NNE,26,0.0,0.0,63,0.00,,CLR,0.00,VWS V14.01,2013-09-22 20:56:00,
2013-09-22 16:01:00,74.8,61.4,29.95,North,353,5.8,5.8,63,0.00,,CLR,0.00,VWS V14.01,2013-09-22 21:01:00,
2013-09-22 16:06:00,75.2,61.8,29.95,NNW,338,0.0,3.6,63,0.00,,CLR,0.00,VWS V14.01,2013-09-22 21:06:00,
2013-09-22 16:11:00,74.5,57.8,29.95,SSE,167,0.0,2.7,56,0.00,,CLR,0.00,VWS V14.01,2013-09-22 21:11:00,
2013-09-22 16:16:00,74.5,57.8,29.95,ENE,63,0.0,0.0,56,0.00,,CLR,0.00,VWS V14.01,2013-09-22 21:16:00,
2013-09-22 16:21:00,74.8,61.4,29.95,SW,221,0.0,3.6,63,0.00,,CLR,0.00,VWS V14.01,2013-09-22 21:21:00,
2013-09-22 16:26:00,75.2,61.8,29.95,NE,41,0.0,4.0,63,0.00,,CLR,0.00,VWS V14.01,2013-09-22 21:26:00,
2013-09-22 16:32:00,75.4,61.9,29.95,NNW,335,4.0,5.4,63,0.00,,CLR,0.00,VWS V14.01,2013-09-22 21:32:00,
2013-09-22 16:37:00,75.2,61.8,29.95,NE,43,0.0,4.0,63,0.00,,CLR,0.00,VWS V14.01,2013-09-22 21:37:00,
2013-09-22 16:42:00,75.0,61.6,29.95,North,2,0.0,0.0,63,0.00,,CLR,0.00,VWS V14.01,2013-09-22 21:42:00,
2013-09-22 16:47:00,75.4,61.9,29.95,North,350,4.9,5.8,63,0.00,,CLR,0.00,VWS V14.01,2013-09-22 21:47:00,
2013-09-22 16:52:00,75.2,61.8,29.95,NW,310,0.0,0.0,63,0.00,,CLR,0.00,VWS V14.01,2013-09-22 21:52:00,
2013-09-22 16:57:00,73.9,57.3,29.95,North,353,0.0,0.0,56,0.00,,CLR,0.00,VWS V14.01,2013-09-22 21:57:00,
2013-09-22 17:02:00,72.7,56.1,29.95,NNW,339,0.0,4.0,56,0.00,,CLR,0.00,VWS V14.01,2013-09-22 22:02:00,
2013-09-22 17:07:00,72.0,55.4,29.95,NW,307,0.0,3.6,56,0.00,,CLR,0.00,VWS V14.01,2013-09-22 22:07:00,
2013-09-22 17:12:00,71.1,56.3,29.95,NNW,333,4.9,5.4,60,0.00,,CLR,0.00,VWS V14.01,2013-09-22 22:12:00,
2013-09-22 17:17:00,70.7,55.9,29.95,NNW,328,2.7,6.3,60,0.00,,CLR,0.00,VWS V14.01,2013-09-22 22:17:00,
2013-09-22 17:23:00,70.5,55.8,29.95,NNW,332,3.1,3.6,60,0.00,,CLR,0.00,VWS V14.01,2013-09-22 22:23:00,
2013-09-22 17:28:00,70.5,55.8,29.95,NNW,348,2.7,5.4,60,0.00,,CLR,0.00,VWS V14.01,2013-09-22 22:28:00,
2013-09-22 17:33:00,70.5,55.8,29.95,NNW,339,0.0,0.0,60,0.00,,CLR,0.00,VWS V14.01,2013-09-22 22:33:00,
2013-09-22 17:38:00,70.7,55.9,29.95,North,353,0.0,4.5,60,0.00,,CLR,0.00,VWS V14.01,2013-09-22 22:38:00,
2013-09-22 17:43:00,70.9,56.1,29.95,NW,323,0.0,4.9,60,0.00,,CLR,0.00,VWS V14.01,2013-09-22 22:43:00,
2013-09-22 17:48:00,70.9,56.1,29.95,NNW,330,0.0,0.0,60,0.00,,CLR,0.00,VWS V14.01,2013-09-22 22:48:00,
2013-09-22 17:53:00,70.5,55.8,29.95,NNE,15,0.0,3.1,60,0.00,,CLR,0.00,VWS V14.01,2013-09-22 22:53:00,
2013-09-22 17:58:00,70.0,55.2,29.95,NNW,327,0.0,0.0,60,0.00,,CLR,0.00,VWS V14.01,2013-09-22 22:58:00,
2013-09-22 18:03:00,69.4,54.7,29.95,NE,49,0.0,4.9,60,0.00,,CLR,0.00,VWS V14.01,2013-09-22 23:03:00,
2013-09-22 18:08:00,69.1,54.4,29.95,NNW,340,3.6,5.4,60,0.00,,CLR,0.00,VWS V14.01,2013-09-22 23:08:00,
2013-09-22 18:13:00,68.7,54.1,29.95,NNW,334,0.0,2.7,60,0.00,,CLR,0.00,VWS V14.01,2013-09-22 23:13:00,
2013-09-22 18:18:00,68.4,53.7,29.95,NNW,332,0.0,0.0,60,0.00,,CLR,0.00,VWS V14.01,2013-09-22 23:18:00,
2013-09-22 18:24:00,68.0,53.4,29.95,NNW,328,0.0,0.0,60,0.00,,CLR,0.00,VWS V14.01,2013-09-22 23:24:00,
2013-09-22 18:29:00,67.6,53.0,29.95,NNW,348,0.0,0.0,60,0.00,,CLR,0.00,VWS V14.01,2013-09-22 23:29:00,
2013-09-22 18:34:00,67.3,52.7,29.95,North,357,0.0,0.0,60,0.00,,CLR,0.00,VWS V14.01,2013-09-22 23:34:00,
2013-09-22 18:39:00,66.9,52.4,29.95,NNW,343,0.0,0.0,60,0.00,,CLR,0.00,VWS V14.01,2013-09-22 23:39:00,
2013-09-22 18:44:00,66.6,52.0,29.95,NNW,343,0.0,0.0,60,0.00,,CLR,0.00,VWS V14.01,2013-09-22 23:44:00,
2013-09-22 18:49:00,66.2,51.7,29.95,NNW,343,0.0,0.0,60,0.00,,CLR,0.00,VWS V14.01,2013-09-22 23:49:00,
2013-09-22 18:54:00,65.8,52.9,29.95,NNW,343,0.0,0.0,63,0.00,,CLR,0.00,VWS V14.01,2013-09-22 23:54:00,
2013-09-22 18:59:00,65.3,52.4,29.95,NNW,343,0.0,0.0,63,0.00,,CLR,0.00,VWS V14.01,2013-09-22 23:59:00,
2013-09-22 19:04:00,64.8,51.9,29.95,NNW,343,0.0,0.0,63,0.00,,CLR,0.00,VWS V14.01,2013-09-23 00:04:00,
2013-09-22 19:09:00,64.4,51.5,29.95,NNW,343,0.0,0.0,63,0.00,,CLR,0.00,VWS V14.01,2013-09-23 00:09:00,
2013-09-22 19:14:00,64.0,51.2,29.95,NNW,343,0.0,0.0,63,0.00,,CLR,0.00,VWS V14.01,2013-09-23 00:14:00,
2013-09-22 19:20:00,63.7,50.9,29.95,NNW,343,0.0,0.0,63,0.00,,CLR,0.00,VWS V14.01,2013-09-23 00:20:00,
2013-09-22 19:25:00,63.5,50.7,29.95,NNW,343,0.0,0.0,63,0.00,,CLR,0.00,VWS V14.01,2013-09-23 00:25:00,
2013-09-22 19:30:00,63.1,50.3,29.95,NNW,343,0.0,0.0,63,0.00,,CLR,0.00,VWS V14.01,2013-09-23 00:30:00,
2013-09-22 19:35:00,63.1,50.3,29.95,NNW,343,0.0,0.0,63,0.00,,CLR,0.00,VWS V14.01,2013-09-23 00:35:00,
2013-09-22 19:40:00,63.0,50.2,29.95,NNW,343,0.0,0.0,63,0.00,,CLR,0.00,VWS V14.01,2013-09-23 00:40:00,
2013-09-22 19:45:00,62.8,50.0,29.95,NNW,343,0.0,0.0,63,0.00,,CLR,0.00,VWS V14.01,2013-09-23 00:45:00,
2013-09-22 19:50:00,62.6,49.8,29.98,NNW,343,0.0,0.0,63,0.00,,CLR,0.00,VWS V14.01,2013-09-23 00:50:00,
2013-09-22 19:55:00,62.2,51.0,29.98,NNW,343,0.0,0.0,66,0.00,,CLR,0.00,VWS V14.01,2013-09-23 00:55:00,
2013-09-22 20:00:00,61.9,50.6,29.98,NNW,343,0.0,0.0,66,0.00,,CLR,0.00,VWS V14.01,2013-09-23 01:00:00,
2013-09-22 20:06:00,61.9,50.6,29.98,NNW,343,0.0,0.0,66,0.00,,CLR,0.00,VWS V14.01,2013-09-23 01:06:00,
2013-09-22 20:11:00,61.7,50.4,29.98,NNW,343,0.0,0.0,66,0.00,,CLR,0.00,VWS V14.01,2013-09-23 01:11:00,
2013-09-22 20:16:00,61.5,50.3,29.98,NNW,343,0.0,0.0,66,0.00,,CLR,0.00,VWS V14.01,2013-09-23 01:16:00,
2013-09-22 20:21:00,61.3,50.1,29.98,NNW,343,0.0,0.0,66,0.00,,CLR,0.00,VWS V14.01,2013-09-23 01:21:00,
2013-09-22 20:26:00,61.2,49.9,29.98,NNW,343,0.0,0.0,66,0.00,,CLR,0.00,VWS V14.01,2013-09-23 01:26:00,
2013-09-22 20:31:00,61.0,49.8,29.98,NNW,343,0.0,0.0,66,0.00,,CLR,0.00,VWS V14.01,2013-09-23 01:31:00,
2013-09-22 20:36:00,60.8,49.6,29.98,NNW,343,0.0,0.0,66,0.00,,CLR,0.00,VWS V14.01,2013-09-23 01:36:00,
2013-09-22 20:41:00,60.8,49.6,29.98,NNW,343,0.0,0.0,66,0.00,,CLR,0.00,VWS V14.01,2013-09-23 01:41:00,
2013-09-22 20:46:00,60.6,49.4,29.98,NNW,343,0.0,0.0,66,0.00,,CLR,0.00,VWS V14.01,2013-09-23 01:46:00,
2013-09-22 20:51:00,60.6,49.4,29.98,NNW,343,0.0,0.0,66,0.00,,CLR,0.00,VWS V14.01,2013-09-23 01:51:00,
2013-09-22 20:56:00,60.4,49.2,29.98,NNW,343,0.0,0.0,66,0.00,,CLR,0.00,VWS V14.01,2013-09-23 01:56:00,
2013-09-22 21:01:00,60.4,49.2,29.98,NNW,343,0.0,0.0,66,0.00,,CLR,0.00,VWS V14.01,2013-09-23 02:01:00,
2013-09-22 21:07:00,60.1,48.9,29.98,NNE,20,0.0,0.0,66,0.00,,CLR,0.00,VWS V14.01,2013-09-23 02:07:00,
2013-09-22 21:12:00,59.9,48.7,29.98,NNE,29,0.0,0.0,66,0.00,,CLR,0.00,VWS V14.01,2013-09-23 02:12:00,
2013-09-22 21:17:00,59.7,48.6,29.98,North,3,0.0,0.0,66,0.00,,CLR,0.00,VWS V14.01,2013-09-23 02:17:00,
2013-09-22 21:22:00,59.7,48.6,29.98,NW,318,0.0,0.0,66,0.00,,CLR,0.00,VWS V14.01,2013-09-23 02:22:00,
2013-09-22 21:27:00,59.5,48.4,29.98,NNE,24,0.0,0.0,66,0.00,,CLR,0.00,VWS V14.01,2013-09-23 02:27:00,
2013-09-22 21:32:00,59.5,48.4,29.98,North,350,0.0,0.0,66,0.00,,CLR,0.00,VWS V14.01,2013-09-23 02:32:00,
2013-09-22 21:37:00,59.5,48.4,29.98,NNW,328,0.0,0.0,66,0.00,,CLR,0.00,VWS V14.01,2013-09-23 02:37:00,
2013-09-22 21:42:00,59.5,48.4,29.98,NE,38,0.0,0.0,66,0.00,,CLR,0.00,VWS V14.01,2013-09-23 02:42:00,
2013-09-22 21:47:00,59.5,48.4,29.98,ENE,59,0.0,2.7,66,0.00,,CLR,0.00,VWS V14.01,2013-09-23 02:47:00,
2013-09-22 21:52:00,59.5,48.4,29.98,ENE,65,0.0,0.0,66,0.00,,CLR,0.00,VWS V14.01,2013-09-23 02:52:00,
2013-09-22 21:57:00,59.5,48.4,29.98,NE,40,0.0,0.0,66,0.00,,CLR,0.00,VWS V14.01,2013-09-23 02:57:00,
2013-09-22 22:03:00,59.5,48.4,29.98,NE,38,2.7,4.0,66,0.00,,CLR,0.00,VWS V14.01,2013-09-23 03:03:00,
2013-09-22 22:08:00,60.1,48.9,29.98,ESE,112,2.7,7.6,66,0.00,,CLR,0.00,VWS V14.01,2013-09-23 03:08:00,
2013-09-22 22:13:00,60.3,49.1,29.98,SSW,192,3.6,10.1,66,0.00,,CLR,0.00,VWS V14.01,2013-09-23 03:13:00,
2013-09-22 22:18:00,60.1,48.9,29.98,SSE,150,3.1,6.3,66,0.00,,CLR,0.00,VWS V14.01,2013-09-23 03:18:00,
2013-09-22 22:23:00,59.7,48.6,29.98,ENE,66,4.9,4.9,66,0.00,,CLR,0.00,VWS V14.01,2013-09-23 03:23:00,
2013-09-22 22:28:00,59.2,48.0,29.98,ENE,57,2.7,7.6,66,0.00,,CLR,0.00,VWS V14.01,2013-09-23 03:28:00,
2013-09-22 22:33:00,58.8,47.7,29.98,East,81,4.0,4.0,66,0.00,,CLR,0.00,VWS V14.01,2013-09-23 03:33:00,
2013-09-22 22:38:00,58.5,47.4,29.98,East,92,4.0,6.3,66,0.00,,CLR,0.00,VWS V14.01,2013-09-23 03:38:00,
2013-09-22 22:43:00,58.1,47.0,29.98,South,173,3.6,10.5,66,0.00,,CLR,0.00,VWS V14.01,2013-09-23 03:43:00,
2013-09-22 22:48:00,57.9,46.8,30.01,NE,38,3.6,6.7,66,0.00,,CLR,0.00,VWS V14.01,2013-09-23 03:48:00,
2013-09-22 22:53:00,57.7,46.7,30.01,ESE,120,5.4,5.8,66,0.00,,CLR,0.00,VWS V14.01,2013-09-23 03:53:00,
2013-09-22 22:59:00,57.6,46.5,30.01,SE,138,2.7,5.4,66,0.00,,CLR,0.00,VWS V14.01,2013-09-23 03:59:00,
2013-09-22 23:01:00,57.6,46.5,30.01,SE,130,3.1,5.8,66,0.00,,CLR,0.00,VWS V14.01,2013-09-23 04:01:00,
2013-09-22 23:02:00,57.6,46.5,30.01,ESE,114,5.8,8.1,66,0.00,,CLR,0.00,VWS V14.01,2013-09-23 04:02:00,
2013-09-22 23:03:00,57.4,46.3,30.01,ENE,78,4.9,8.1,66,0.00,,CLR,0.00,VWS V14.01,2013-09-23 04:03:00,
2013-09-22 23:08:00,57.2,46.2,30.01,SE,143,4.9,7.6,66,0.00,,CLR,0.00,VWS V14.01,2013-09-23 04:08:00,
2013-09-22 23:13:00,57.0,47.3,30.01,SE,126,6.3,6.3,70,0.00,,CLR,0.00,VWS V14.01,2013-09-23 04:13:00,
2013-09-22 23:18:00,56.8,47.2,30.01,North,357,3.1,6.3,70,0.00,,CLR,0.00,VWS V14.01,2013-09-23 04:18:00,
2013-09-22 23:23:00,56.8,47.2,30.01,East,100,8.3,8.3,70,0.00,,CLR,0.00,VWS V14.01,2013-09-23 04:23:00,
2013-09-22 23:28:00,56.7,47.0,30.01,ENE,62,3.6,10.5,70,0.00,,CLR,0.00,VWS V14.01,2013-09-23 04:28:00,
2013-09-22 23:34:00,56.7,47.0,30.01,ENE,57,2.2,9.6,70,0.00,,CLR,0.00,VWS V14.01,2013-09-23 04:34:00,
2013-09-22 23:39:00,56.3,46.7,30.01,East,83,3.6,7.6,70,0.00,,CLR,0.00,VWS V14.01,2013-09-23 04:39:00,
2013-09-22 23:44:00,56.3,46.7,30.01,ESE,120,8.7,8.7,70,0.00,,CLR,0.00,VWS V14.01,2013-09-23 04:44:00,
2013-09-22 23:49:00,56.3,46.7,30.01,ESE,122,3.6,7.6,70,0.00,,CLR,0.00,VWS V14.01,2013-09-23 04:49:00,
2013-09-22 23:54:00,56.3,46.7,30.01,SSE,164,4.0,7.6,70,0.00,,CLR,0.00,VWS V14.01,2013-09-23 04:54:00,
2013-09-22 23:59:00,56.1,46.5,30.01,SE,132,3.1,6.3,70,0.00,,CLR,0.00,VWS V14.01,2013-09-23 04:59:00,